Retour au catalogue

STARLINK-34742

ActifCommunicationsSSO
NORAD 64942·PAYLOAD·🇺🇸 United States

Lancé Jul 26, 2025 depuis Vandenberg Space Force Base

Loading…

Prochains Passages (prochaines 24 heures)

TLE

FraisSource: CelesTrak SupGP

Époque: Sep 15, 2026, 03:16 UTC

1 64942C 25158L   26258.13659722  .00000637  00000+0  19766-4 0  2580
2 64942  97.2851 116.4890 0001641  96.4917 231.0101 15.33444041    14

Suivez STARLINK-34742 en temps réel avec AllMySat

Download on the App Store